• In Belarus
  • List of Countries
  • For 7 days
  • Water Temperature
  • Satellite Maps
  • Weather Map
  • Weather Widgets
  • user-avatar
    Login

    Hourly Weather Jalalabad

    Today, 15 December, Friday

    Time Temperature Precipitation Wind Pressure Humidity
    00:00 +7°C° 0.1 mm 2 mps 714 mmHg 60%
    01:00 +6°C° 0.1 mm 2 mps 715 mmHg 60%
    02:00 +6°C° 0.1 mm 2 mps 715 mmHg 59%
    03:00 +6°C° 0.1 mm 2 mps 715 mmHg 60%
    04:00 +5°C° 0.1 mm 2 mps 715 mmHg 60%
    05:00 +5°C° 0 mm 3 mps 714 mmHg 56%
    06:00 +5°C° 0 mm 3 mps 715 mmHg 56%
    07:00 +6°C° 0 mm 2 mps 715 mmHg 55%
    08:00 +6°C° 0 mm 2 mps 715 mmHg 55%
    09:00 +7°C° 0 mm 3 mps 715 mmHg 50%
    10:00 +8°C° 0 mm 3 mps 715 mmHg 46%
    11:00 +10°C° 0 mm 3 mps 715 mmHg 37%
    12:00 +10°C° 0 mm 3 mps 715 mmHg 37%
    13:00 +11°C° 0 mm 3 mps 715 mmHg 36%
    14:00 +11°C° 0 mm 3 mps 714 mmHg 36%
    15:00 +11°C° 0 mm 3 mps 715 mmHg 38%
    16:00 +10°C° 0 mm 2 mps 715 mmHg 40%
    17:00 +10°C° 0 mm 2 mps 715 mmHg 41%
    18:00 +9°C° 0 mm 2 mps 716 mmHg 42%
    19:00 +8°C° 0 mm 3 mps 716 mmHg 42%
    20:00 +8°C° 0 mm 3 mps 717 mmHg 43%
    21:00 +8°C° 0 mm 3 mps 717 mmHg 41%
    22:00 +7°C° 0 mm 3 mps 717 mmHg 40%
    23:00 +7°C° 0 mm 3 mps 717 mmHg 38%

    Tomorrow, 16 December, Saturday

    Time Temperature Precipitation Wind Pressure Humidity
    00:00 +7°C° 0 mm 3 mps 717 mmHg 37%
    01:00 +7°C° 0 mm 3 mps 717 mmHg 36%
    02:00 +7°C° 0 mm 3 mps 716 mmHg 35%
    03:00 +7°C° 0 mm 3 mps 716 mmHg 34%
    04:00 +7°C° 0 mm 3 mps 716 mmHg 33%
    05:00 +5°C° 0 mm 3 mps 716 mmHg 32%
    06:00 +7°C° 0 mm 3 mps 716 mmHg 32%
    07:00 +7°C° 0 mm 2 mps 716 mmHg 31%
    08:00 +7°C° 0 mm 2 mps 716 mmHg 30%
    09:00 +9°C° 0 mm 2 mps 716 mmHg 27%
    10:00 +10°C° 0 mm 2 mps 716 mmHg 24%
    11:00 +13°C° 0 mm 2 mps 716 mmHg 21%
    12:00 +14°C° 0 mm 2 mps 715 mmHg 21%
    13:00 +14°C° 0 mm 2 mps 715 mmHg 21%
    14:00 +15°C° 0 mm 2 mps 714 mmHg 21%
    15:00 +14°C° 0 mm 2 mps 714 mmHg 23%
    16:00 +13°C° 0 mm 2 mps 715 mmHg 25%
    17:00 +12°C° 0 mm 1 mps 715 mmHg 28%
    18:00 +12°C° 0 mm 2 mps 715 mmHg 28%
    19:00 +10°C° 0 mm 2 mps 716 mmHg 28%
    20:00 +10°C° 0 mm 2 mps 716 mmHg 29%
    21:00 +9°C° 0 mm 2 mps 716 mmHg 29%
    22:00 +9°C° 0 mm 2 mps 716 mmHg 29%
    23:00 +9°C° 0 mm 2 mps 717 mmHg 29%

    Day after tomorrow, 17 December, Sunday

    Time Temperature Precipitation Wind Pressure Humidity
    00:00 +9°C° 0 mm 2 mps 717 mmHg 29%
    01:00 +9°C° 0 mm 2 mps 717 mmHg 29%
    02:00 +9°C° 0 mm 2 mps 717 mmHg 29%
    03:00 +9°C° 0 mm 2 mps 717 mmHg 29%
    04:00 +8°C° 0 mm 2 mps 716 mmHg 29%
    05:00 +8°C° 0 mm 2 mps 716 mmHg 29%
    06:00 +9°C° 0 mm 2 mps 716 mmHg 28%
    07:00 +9°C° 0 mm 2 mps 717 mmHg 28%
    08:00 +10°C° 0 mm 2 mps 717 mmHg 28%
    09:00 +12°C° 0 mm 2 mps 717 mmHg 25%
    10:00 +14°C° 0 mm 2 mps 717 mmHg 23%
    11:00 +16°C° 0 mm 2 mps 717 mmHg 20%
    12:00 +16°C° 0 mm 2 mps 717 mmHg 20%
    13:00 +16°C° 0 mm 1 mps 716 mmHg 20%
    14:00 +18°C° 0 mm 1 mps 716 mmHg 20%
    15:00 +16°C° 0 mm 1 mps 716 mmHg 23%
    16:00 +15°C° 0 mm 1 mps 716 mmHg 26%
    17:00 +14°C° 0 mm 1 mps 715 mmHg 28%
    18:00 +14°C° 0 mm 2 mps 716 mmHg 29%
    19:00 +14°C° 0 mm 2 mps 717 mmHg 29%
    20:00 +14°C° 0 mm 2 mps 717 mmHg 30%
    21:00 +14°C° 0 mm 2 mps 717 mmHg 31%
    22:00 +13°C° 0 mm 2 mps 717 mmHg 32%
    23:00 +13°C° 0 mm 2 mps 717 mmHg 33%

    18 December, Monday

    Time Temperature Precipitation Wind Pressure Humidity
    00:00 +13°C° 0 mm 2 mps 717 mmHg 34%
    01:00 +13°C° 0 mm 2 mps 717 mmHg 35%
    02:00 +13°C° 0 mm 2 mps 717 mmHg 35%
    03:00 +13°C° 0 mm 2 mps 716 mmHg 36%
    04:00 +11°C° 0 mm 3 mps 716 mmHg 36%
    05:00 +11°C° 0 mm 3 mps 716 mmHg 37%
    06:00 +11°C° 0 mm 3 mps 716 mmHg 37%
    07:00 +11°C° 0 mm 3 mps 717 mmHg 36%
    08:00 +13°C° 0 mm 2 mps 717 mmHg 36%
    09:00 +14°C° 0 mm 2 mps 717 mmHg 33%
    10:00 +15°C° 0 mm 2 mps 717 mmHg 29%
    11:00 +17°C° 0 mm 2 mps 717 mmHg 26%
    12:00 +17°C° 0 mm 2 mps 716 mmHg 26%
    13:00 +18°C° 0 mm 2 mps 716 mmHg 25%
    14:00 +18°C° 0 mm 2 mps 715 mmHg 25%
    15:00 +18°C° 0 mm 2 mps 715 mmHg 27%
    16:00 +17°C° 0 mm 2 mps 715 mmHg 29%
    17:00 +16°C° 0 mm 2 mps 715 mmHg 32%
    18:00 +16°C° 0 mm 2 mps 715 mmHg 32%
    19:00 +15°C° 0 mm 2 mps 716 mmHg 33%
    20:00 +14°C° 0 mm 3 mps 716 mmHg 33%
    21:00 +14°C° 0 mm 3 mps 716 mmHg 34%
    22:00 +14°C° 0 mm 3 mps 716 mmHg 34%
    23:00 +14°C° 0 mm 3 mps 716 mmHg 34%

    19 December, Tuesday

    Time Temperature Precipitation Wind Pressure Humidity
    00:00 +13°C° 0 mm 3 mps 716 mmHg 35%
    01:00 +13°C° 0 mm 3 mps 716 mmHg 35%
    02:00 +13°C° 0 mm 3 mps 715 mmHg 36%
    03:00 +13°C° 0 mm 3 mps 715 mmHg 36%
    04:00 +13°C° 0 mm 3 mps 715 mmHg 36%
    05:00 +13°C° 0 mm 3 mps 715 mmHg 36%
    06:00 +13°C° 0 mm 3 mps 715 mmHg 35%
    07:00 +13°C° 0 mm 3 mps 716 mmHg 35%
    08:00 +13°C° 0 mm 3 mps 716 mmHg 35%
    09:00 +14°C° 0 mm 3 mps 716 mmHg 31%
    10:00 +17°C° 0 mm 3 mps 716 mmHg 28%
    11:00 +18°C° 0 mm 3 mps 716 mmHg 25%
    12:00 +19°C° 0 mm 3 mps 716 mmHg 24%
    13:00 +19°C° 0 mm 3 mps 715 mmHg 24%
    14:00 +20°C° 0 mm 2 mps 715 mmHg 23%
    15:00 +19°C° 0 mm 2 mps 715 mmHg 26%
    16:00 +18°C° 0 mm 2 mps 714 mmHg 28%
    17:00 +17°C° 0 mm 2 mps 714 mmHg 30%
    18:00 +16°C° 0 mm 2 mps 715 mmHg 30%
    19:00 +15°C° 0 mm 2 mps 715 mmHg 31%
    20:00 +14°C° 0 mm 3 mps 716 mmHg 31%
    21:00 +13°C° 0 mm 3 mps 716 mmHg 31%
    22:00 +13°C° 0 mm 3 mps 716 mmHg 30%
    23:00 +13°C° 0 mm 3 mps 716 mmHg 30%

    20 December, Wednesday

    Time Temperature Precipitation Wind Pressure Humidity
    00:00 +12°C° 0 mm 3 mps 715 mmHg 30%
    01:00 +12°C° 0 mm 3 mps 715 mmHg 29%
    02:00 +12°C° 0 mm 3 mps 715 mmHg 29%
    03:00 +12°C° 0 mm 3 mps 715 mmHg 28%
    04:00 +11°C° 0 mm 3 mps 715 mmHg 28%
    05:00 +11°C° 0 mm 3 mps 715 mmHg 28%
    06:00 +11°C° 0 mm 3 mps 715 mmHg 27%
    07:00 +11°C° 0 mm 3 mps 715 mmHg 27%
    08:00 +11°C° 0 mm 3 mps 716 mmHg 27%
    09:00 +14°C° 0 mm 2 mps 716 mmHg 24%
    10:00 +17°C° 0 mm 2 mps 716 mmHg 21%
    11:00 +19°C° 0 mm 2 mps 716 mmHg 17%
    12:00 +19°C° 0 mm 2 mps 716 mmHg 17%
    13:00 +20°C° 0 mm 2 mps 715 mmHg 17%
    14:00 +20°C° 0 mm 2 mps 715 mmHg 16%
    15:00 +19°C° 0 mm 2 mps 715 mmHg 18%
    16:00 +18°C° 0 mm 2 mps 715 mmHg 21%
    17:00 +16°C° 0 mm 1 mps 714 mmHg 23%
    18:00 +16°C° 0 mm 2 mps 715 mmHg 23%
    19:00 +15°C° 0 mm 2 mps 715 mmHg 23%
    20:00 +15°C° 0 mm 2 mps 716 mmHg 23%
    21:00 +14°C° 0 mm 2 mps 716 mmHg 23%
    22:00 +14°C° 0 mm 2 mps 716 mmHg 23%
    23:00 +13°C° 0 mm 2 mps 716 mmHg 24%
    Show more